Location: *
(32.8140°S, 174.6161°E)
Time: 16:06:07
(UTC+00:00)

Cosmos 2173 Rocket - Pass Details

Date: 10 December 2019
Orbit: 946 x 1000 km, 83.0° (Epoch: 27 January)

Event Time Altitude Azimuth Distance (km) Brightness Sun altitude
Rises 14:10:49 0° 190° (S) 3,735 7.8 -27.7°
Reaches altitude 10° 14:13:23 10° 192° (SSW) 2,774 6.9 -27.4°
Maximum altitude 14:19:41 66° 273° (W) 1,072 4.0 -26.7°
Enters shadow 14:20:06 64° 296° (WNW) 1,084 3.9 -26.7°
